This demonstration page uses our WeatherBlox Daily Observations layout. Learn more.

Left ArrowRight Arrow

Hourly Observations for June 24, 2017

Temp ( °F °C ) Dew Point ( °F °C ) Humidity (%) Winds ( mph kmh ) Pressure ( in mb ) Visibility ( mi km ) Precip ( " mm )
12:51 am 00:51 Clear 85 29.4 41 5 21 21 NW 9 15 29.67 1005 10 16 N/A
1:51 am 01:51 Clear 82 27.8 40 4.4 22 22 NW 10 17 29.66 1005 10 16 N/A
2:51 am 02:51 Clear 83 28.3 40 4.4 22 22 NW 9 15 29.66 1004 10 16 N/A
3:51 am 03:51 Clear 82 27.8 40 4.4 22 22 E 8 13 29.68 1005 10 16 N/A
4:51 am 04:51 Clear 80 26.7 42 5.6 26 26 SSW 9 15 29.71 1006 10 16 N/A
5:51 am 05:51 Sunny 79 26.1 41 5 26 26 NE 7 11 29.75 1007 10 16 N/A
6:51 am 06:51 Sunny 87 30.6 44 6.7 22 22 ESE 12 19 29.76 1008 10 16 N/A
7:51 am 07:51 Sunny 92 33.3 51 10.6 25 25 E 14 22 29.77 1008 10 16 N/A
8:51 am 08:51 Sunny 94 34.4 50 10 22 22 SSE 8 13 29.77 1008 10 16 N/A
9:51 am 09:51 Sunny 96 35.6 51 10.6 22 22 SSE 8 13 29.77 1008 10 16 N/A
10:51 am 10:51 Sunny 98 36.7 50 10 20 20 VRB 6 9 29.75 1007 10 16 N/A
11:51 am 11:51 Sunny 101 38.3 50 10 18 18 VRB 6 9 29.72 1007 10 16 N/A
12:51 pm 12:51 Sunny 105 40.6 49 9.4 15 15 S 14 22 29.70 1006 10 16 N/A
1:51 pm 13:51 Sunny 106 41.1 47 8.3 14 14 S 8 13 29.67 1005 10 16 N/A
2:51 pm 14:51 Sunny 106 41.1 45 7.2 13 13 undefined N/A 29.64 1004 10 16 N/A
3:51 pm 15:51 Sunny 108 42.2 38 3.3 9 9 S 7 11 29.61 1003 10 16 N/A
4:51 pm 16:51 Sunny 109 42.8 33 0.6 7 7 N N/A 29.60 1003 10 16 N/A
5:51 pm 17:51 Sunny 100 37.8 44 6.7 15 15 ENE 24 39 29.63 1003 10 16 N/A
6:51 pm 18:51 Sunny 98 36.7 44 6.7 16 16 ESE 20 31 29.67 1005 10 16 N/A
7:51 pm 19:51 Mostly Cloudy 95 35 48 8.9 20 20 E 12 19 29.70 1006 10 16 N/A
8:51 pm 20:51 Clear 91 32.8 50 10 25 25 SSE 21 33 29.78 1008 10 16 N/A
9:51 pm 21:51 Clear 87 30.6 53 11.7 31 31 SSE 12 19 29.84 1010 10 16 N/A
10:51 pm 22:51 Clear 84 28.9 53 11.7 34 34 S 17 28 29.84 1010 10 16 N/A
11:51 pm 23:51 Mostly Clear 83 28.3 53 11.7 36 36 SSE 15 24 29.85 1011 9 14 N/A

Powered by AerisWeather